Weather Roundup
Issued by NWS Chicago, IL

Home | Current Version | Previous Version | Text Only | Print | Product List | Glossary On
Versions: 1 2 3 4 5 6 7 8 9 10 11 12 13 14 15 16 17 18 19 20 21 22 23 24 25 26 27 28 29 30 31 32 33 34 35 36 37 38 39 40 41 42 43 44 45 46 47 48 49 50
000
NZUS59 KLOT 202310
HRRLOT

CHICAGO AREA WEATHER ROUNDUP
NATIONAL WEATHER SERVICE CHICAGO/ROMEOVILLE IL
600 PM CDT MON OCT 20 2014

NOTE: "FAIR" INDICATES FEW OR NO CLOUDS BELOW 12,000 FEET WITH NO
SIGNIFICANT WEATHER AND/OR OBSTRUCTIONS TO VISIBILITY.

* THESE STATIONS ARE NOT UNDER NWS QUALITY CONTROL. THEY ALSO MAY NOT
  REPORT WEATHER SUCH AS PRECIPITATION OR FOG.

ILZ005-006-012>014-019>023-210000-
NORTHEAST ILLINOIS

CITY           SKY/WX    TMP DP  RH WIND       PRES   REMARKS
OHARE          MOCLDY    56  44  64 NE7       29.93R
MIDWAY         MOCLDY    57  47  69 N9        29.94R
AURORA         MOCLDY    57  42  57 N8        29.93R
LANSING*       CLOUDY    55  48  79 N10G16    29.94R
JOLIET*        PTCLDY    58  42  55 N6        29.93R
WAUKEGAN       CLOUDY    53  44  71 VRB6      29.93R
DUPAGE AIRPORT PTCLDY    55  43  63 N9        29.93R
WHEELING       MOCLDY    56  45  66 NE3       29.95R
KANKAKEE*      MOCLDY    61  44  53 NW9G16    29.92R
MORRIS*        MOCLDY    60  45  57 N5        29.92R
LEWIS AIRPORT* MOCLDY    58  41  52 N12       29.93R
NORTHERLY IS     N/A     54  48  80 N10         N/A
$$

WIZ051-052-058>065-066-070>072-210000-
SOUTHEAST WISCONSIN

CITY           SKY/WX    TMP DP  RH WIND       PRES   REMARKS
MILWAUKEE      MOCLDY    54  41  61 NW7       29.94R
KENOSHA*       CLOUDY    53  43  68 N8        29.95R
RACINE*        CLOUDY    53  42  66 NW6       29.95R
BURLINGTON     CLOUDY    52  41  67 NW7       29.95R
WAUKESHA       CLOUDY    50  41  71 NW12      29.96R
WEST BEND      CLOUDY    52  41  66 NW7       29.95R
$$

INZ001>003-010>013-019-020-210000-
NORTHWEST INDIANA

CITY           SKY/WX    TMP DP  RH WIND       PRES   REMARKS
GARY*          MOCLDY    55  48  76 N12       29.94R
MICHIGAN CITY* NOT AVBL
RENSSELAER*    NOT AVBL
VALPARAISO     CLOUDY    53  48  83 N9        29.92R
$$

LMZ740>746-210000-
SOUTHERN LAKE MICHIGAN

STATION/POSITION TIME  SKY/WX   TEMP WIND        PRES    VSBY
                                AIR  DIR/SP/G
                 (UTC)          (F)  (DEG/KT/KT) (MB)    (MI)
HARRISON CRIB    2300            54  360/ 14/ 17   N/A
BURNHAM HARBOR   2300            54  350/  9/ 15   N/A
CALUMET HARBOR   2300            54  340/  7/ 11 1012.6R
BURNS HARBOR     NOT AVBL
MICHIGAN CITY    2300            54  350/ 21/ 23   N/A
$$

ABBREVIATIONS USED IN REMARKS
   TC - TEMPERATURE IN CELSIUS
  WCI - WIND CHILL INDEX
   HX - HEAT INDEX
  VSB - VISIBILITY
$$



USA.gov is the U.S. government's official web portal to all federal, state and local government web resources and services.